TOW2231 FHAW-EGVN

Flight info

Callsign TOW2231
Flight time N/A
Altitude 38000
Route ANPIR/N0481F370 DCT GARKI/N0477F380 DCT TURED/N0472F390 DCT PIVSA DCT NARAT DCT UPESA DCT NOCUT DCT ETIBA/N0469F400 DCT APASO DCT ROSTA/M082F390 DCT ABALO/N0471F400 DCT DEMZO DCT PELUS DCT IDREL DCT RUPEP DCT MANOX/M082F390 DCT LUPOV DCT NILAV DCT OMOKO/N0473F390 DCT LND DCT VLN
Aircraft A332/H-SDE3GHIJ2J3J5M1RVWXY/LB2D1

Departure

Time N/A
Airport RAF Ascension Island (FHAW)

Arrival

Time 2026-05-09 07:50
Airport RAF Brize Norton (EGVN)
Time Latitude Longitude Altitude Speed Heading
2026-05-09 06:43 48.03155 -12.31586 37885 ft 483 kts 15°
2026-05-09 06:43 48.06382 -12.30343 37883 ft 484 kts 15°
2026-05-09 06:43 48.12919 -12.27821 37863 ft 485 kts 15°
2026-05-09 06:44 48.19464 -12.25289 37885 ft 485 kts 15°
2026-05-09 06:44 48.26011 -12.22750 37873 ft 485 kts 16°
2026-05-09 06:45 48.32518 -12.20219 37883 ft 485 kts 15°
2026-05-09 06:45 48.39059 -12.17669 37896 ft 485 kts 15°
2026-05-09 06:46 48.45594 -12.15114 37895 ft 486 kts 16°
2026-05-09 06:46 48.52177 -12.12532 37895 ft 489 kts 15°
2026-05-09 06:47 48.58742 -12.09952 37904 ft 490 kts 16°
2026-05-09 06:47 48.65353 -12.07350 37906 ft 490 kts 15°
2026-05-09 06:48 48.71925 -12.04752 37915 ft 491 kts 15°
2026-05-09 06:48 48.78338 -12.01243 37914 ft 489 kts 30°
2026-05-09 06:49 48.83655 -11.94957 37924 ft 484 kts 51°
2026-05-09 06:49 48.87138 -11.86330 37923 ft 478 kts 70°
2026-05-09 06:50 48.89489 -11.76928 37919 ft 479 kts 72°
2026-05-09 06:50 48.91666 -11.67325 37920 ft 480 kts 73°
2026-05-09 06:51 48.93847 -11.57724 37922 ft 480 kts 72°
2026-05-09 06:51 48.96044 -11.48194 37914 ft 479 kts 72°
2026-05-09 06:52 48.98257 -11.38638 37934 ft 478 kts 72°
2026-05-09 06:52 49.00465 -11.29065 37931 ft 478 kts 72°
2026-05-09 06:53 49.02650 -11.19531 37928 ft 478 kts 73°
2026-05-09 06:53 49.04835 -11.09955 37933 ft 478 kts 72°
2026-05-09 06:54 49.07000 -11.00418 37933 ft 478 kts 72°
2026-05-09 06:54 49.09168 -10.90829 37933 ft 478 kts 72°
2026-05-09 06:55 49.11332 -10.81220 37944 ft 478 kts 73°
2026-05-09 06:55 49.13476 -10.71653 37944 ft 478 kts 74°
2026-05-09 06:56 49.15618 -10.62038 37939 ft 477 kts 73°
2026-05-09 06:56 49.17751 -10.52427 37941 ft 477 kts 73°
2026-05-09 06:57 49.19866 -10.42847 37946 ft 477 kts 74°
2026-05-09 06:57 49.21983 -10.33226 37946 ft 477 kts 75°
2026-05-09 06:58 49.24091 -10.23602 37946 ft 477 kts 75°
2026-05-09 06:58 49.26176 -10.14027 37954 ft 475 kts 73°
2026-05-09 06:59 49.28260 -10.04410 37955 ft 476 kts 75°
2026-05-09 06:59 49.30338 -9.94778 37955 ft 476 kts 76°
2026-05-09 07:00 49.32408 -9.85131 37957 ft 476 kts 76°
2026-05-09 07:00 49.34459 -9.75550 37963 ft 477 kts 76°
2026-05-09 07:01 49.36527 -9.65833 37959 ft 478 kts 75°
2026-05-09 07:01 49.38586 -9.56110 37955 ft 479 kts 76°
2026-05-09 07:02 49.40637 -9.46380 37969 ft 478 kts 76°
2026-05-09 07:02 49.42667 -9.36700 37971 ft 478 kts 76°
2026-05-09 07:03 49.44704 -9.26945 37970 ft 478 kts 75°
2026-05-09 07:03 49.46717 -9.17255 37970 ft 478 kts 75°
2026-05-09 07:04 49.48731 -9.07510 37973 ft 478 kts 75°
2026-05-09 07:04 49.50742 -8.97740 37965 ft 478 kts 75°
2026-05-09 07:05 49.52743 -8.87987 37975 ft 476 kts 74°
2026-05-09 07:05 49.54727 -8.78249 37982 ft 476 kts 75°
2026-05-09 07:06 49.56691 -8.68562 37982 ft 476 kts 75°
2026-05-09 07:06 49.58325 -8.60460 37985 ft 476 kts 76°
2026-05-09 07:07 49.60282 -8.50720 37984 ft 475 kts 76°
2026-05-09 07:07 49.62231 -8.40975 37985 ft 474 kts 75°
2026-05-09 07:08 49.64155 -8.31300 37985 ft 474 kts 75°
2026-05-09 07:08 49.66081 -8.21550 37988 ft 474 kts 77°
2026-05-09 07:09 49.68002 -8.11781 37978 ft 474 kts 76°
2026-05-09 07:09 49.69902 -8.02082 37993 ft 475 kts 76°
2026-05-09 07:10 49.71813 -7.92291 37993 ft 474 kts 75°
2026-05-09 07:10 49.73706 -7.82534 37993 ft 474 kts 76°
2026-05-09 07:11 49.75580 -7.72819 37996 ft 474 kts 77°
2026-05-09 07:11 49.77456 -7.63033 37996 ft 475 kts 76°
2026-05-09 07:12 49.79328 -7.53234 38001 ft 475 kts 76°
2026-05-09 07:12 49.81195 -7.43416 38001 ft 475 kts 76°
2026-05-09 07:13 49.83052 -7.33597 38009 ft 475 kts 77°
2026-05-09 07:13 49.84904 -7.23743 38009 ft 475 kts 77°
2026-05-09 07:14 49.86742 -7.13914 38007 ft 475 kts 77°
2026-05-09 07:14 49.88563 -7.04129 38012 ft 475 kts 77°
2026-05-09 07:15 49.90388 -6.94263 38006 ft 475 kts 77°
2026-05-09 07:15 49.92204 -6.84399 38013 ft 475 kts 77°
2026-05-09 07:16 49.94011 -6.74523 38013 ft 476 kts 77°
2026-05-09 07:16 49.95815 -6.64617 38016 ft 476 kts 77°
2026-05-09 07:17 49.97599 -6.54768 38018 ft 476 kts 77°
2026-05-09 07:17 49.99386 -6.44841 38018 ft 476 kts 77°
2026-05-09 07:18 50.01165 -6.34913 38020 ft 476 kts 77°
2026-05-09 07:18 50.02935 -6.24977 38020 ft 476 kts 77°
2026-05-09 07:19 50.04682 -6.15116 38024 ft 475 kts 77°
2026-05-09 07:19 50.06431 -6.05184 38023 ft 475 kts 77°
2026-05-09 07:20 50.08170 -5.95257 38024 ft 475 kts 77°
2026-05-09 07:20 50.09904 -5.85308 38021 ft 475 kts 77°
2026-05-09 07:21 50.11616 -5.75421 38019 ft 476 kts 77°
2026-05-09 07:21 50.13382 -5.65468 38018 ft 477 kts 72°
2026-05-09 07:22 50.14904 -5.60845 38030 ft 480 kts 60°
2026-05-09 07:22 50.16760 -5.56481 38028 ft 481 kts 58°
2026-05-09 07:22 50.20555 -5.47912 38035 ft 483 kts 58°
2026-05-09 07:23 50.24371 -5.39241 38030 ft 485 kts 58°
2026-05-09 07:23 50.28181 -5.30528 38034 ft 485 kts 58°
2026-05-09 07:24 50.31958 -5.21851 38036 ft 485 kts 58°
2026-05-09 07:24 50.35749 -5.13111 38052 ft 485 kts 58°
2026-05-09 07:25 50.39534 -5.04354 38051 ft 485 kts 58°
2026-05-09 07:25 50.43312 -4.95585 38049 ft 485 kts 58°
2026-05-09 07:26 50.47084 -4.86799 38052 ft 485 kts 58°
2026-05-09 07:26 50.50847 -4.78006 38048 ft 485 kts 58°
2026-05-09 07:27 50.54608 -4.69188 38043 ft 485 kts 58°
2026-05-09 07:27 50.58360 -4.60361 38068 ft 485 kts 58°
2026-05-09 07:28 50.62102 -4.51527 38075 ft 485 kts 59°
2026-05-09 07:28 50.65839 -4.42675 38073 ft 485 kts 59°
2026-05-09 07:29 50.69546 -4.33864 38076 ft 485 kts 59°
2026-05-09 07:29 50.73271 -4.24982 38085 ft 485 kts 59°
2026-05-09 07:30 50.76988 -4.16087 38077 ft 485 kts 59°
2026-05-09 07:30 50.80699 -4.07176 38095 ft 485 kts 59°
2026-05-09 07:31 50.84408 -3.98242 38094 ft 483 kts 59°
2026-05-09 07:31 50.88073 -3.89382 38099 ft 483 kts 59°
2026-05-09 07:32 50.91746 -3.80470 38103 ft 483 kts 59°
2026-05-09 07:32 50.95392 -3.71596 38107 ft 483 kts 59°
2026-05-09 07:33 51.00886 -3.58164 37774 ft 484 kts 60°
2026-05-09 07:33 51.02722 -3.53662 37035 ft 484 kts 60°
2026-05-09 07:34 51.04551 -3.49171 35958 ft 482 kts 61°
2026-05-09 07:34 51.06372 -3.44692 34773 ft 481 kts 63°
2026-05-09 07:34 51.08185 -3.40221 33494 ft 481 kts 63°
2026-05-09 07:34 51.09997 -3.35742 31985 ft 482 kts 62°
2026-05-09 07:35 51.11800 -3.31275 30341 ft 485 kts 62°
2026-05-09 07:35 51.13631 -3.26729 28484 ft 489 kts 61°
2026-05-09 07:35 51.15465 -3.22176 27087 ft 484 kts 60°
2026-05-09 07:35 51.17273 -3.17685 25783 ft 474 kts 60°
2026-05-09 07:36 51.19018 -3.13341 24596 ft 465 kts 59°
2026-05-09 07:36 51.20746 -3.09027 23352 ft 458 kts 59°
2026-05-09 07:36 51.22440 -3.04794 22067 ft 447 kts 59°
2026-05-09 07:36 51.24093 -3.00654 20828 ft 437 kts 58°
2026-05-09 07:37 51.25714 -2.96588 19615 ft 428 kts 58°
2026-05-09 07:37 51.27271 -2.92677 18348 ft 417 kts 58°
2026-05-09 07:37 51.28811 -2.88802 16782 ft 410 kts 58°
2026-05-09 07:37 51.30325 -2.84984 15298 ft 402 kts 57°
2026-05-09 07:38 51.31816 -2.81218 13774 ft 401 kts 57°
2026-05-09 07:38 51.33294 -2.77482 12785 ft 390 kts 57°
2026-05-09 07:38 51.34724 -2.73862 12125 ft 381 kts 57°
2026-05-09 07:38 51.36124 -2.70315 11448 ft 376 kts 57°
2026-05-09 07:39 51.37497 -2.66831 10865 ft 369 kts 57°
2026-05-09 07:39 51.38826 -2.63448 10797 ft 349 kts 57°
2026-05-09 07:39 51.40084 -2.60246 10718 ft 330 kts 57°
2026-05-09 07:39 51.41280 -2.57200 10575 ft 315 kts 57°
2026-05-09 07:40 51.42426 -2.54278 10426 ft 302 kts 56°
2026-05-09 07:40 51.43524 -2.51475 10306 ft 291 kts 57°
2026-05-09 07:40 51.44585 -2.48763 9933 ft 291 kts 57°
2026-05-09 07:40 51.45663 -2.46011 9505 ft 290 kts 57°
2026-05-09 07:41 51.46730 -2.43276 9154 ft 287 kts 57°
2026-05-09 07:41 51.47785 -2.40571 8782 ft 284 kts 58°
2026-05-09 07:41 51.48826 -2.37898 8431 ft 281 kts 58°
2026-05-09 07:41 51.49859 -2.35244 8075 ft 279 kts 58°
2026-05-09 07:42 51.50873 -2.32636 7729 ft 277 kts 58°
2026-05-09 07:42 51.51888 -2.30025 7383 ft 275 kts 58°
2026-05-09 07:42 51.52909 -2.27399 7029 ft 273 kts 58°
2026-05-09 07:42 51.53907 -2.24823 6685 ft 271 kts 58°
2026-05-09 07:43 51.54885 -2.22297 6325 ft 269 kts 59°
2026-05-09 07:43 51.55871 -2.19741 5979 ft 267 kts 59°
2026-05-09 07:43 51.56844 -2.17225 5644 ft 264 kts 59°
2026-05-09 07:43 51.57816 -2.14716 5312 ft 263 kts 59°
2026-05-09 07:44 51.58782 -2.12216 4965 ft 260 kts 59°
2026-05-09 07:44 51.59725 -2.09770 4624 ft 260 kts 59°
2026-05-09 07:44 51.60667 -2.07313 4295 ft 257 kts 59°
2026-05-09 07:44 51.61605 -2.04865 3960 ft 255 kts 59°
2026-05-09 07:45 51.62533 -2.02439 3639 ft 254 kts 59°
2026-05-09 07:45 51.63449 -2.00047 3451 ft 246 kts 59°
2026-05-09 07:45 51.64329 -1.97759 3325 ft 235 kts 59°
2026-05-09 07:45 51.65176 -1.95553 3217 ft 225 kts 59°
2026-05-09 07:46 51.65984 -1.93455 3132 ft 216 kts 59°
2026-05-09 07:46 51.66754 -1.91454 3017 ft 211 kts 60°
2026-05-09 07:46 51.67525 -1.89437 3009 ft 212 kts 60°
2026-05-09 07:46 51.68298 -1.87409 2994 ft 212 kts 60°
2026-05-09 07:47 51.69071 -1.85384 2990 ft 212 kts 60°
2026-05-09 07:47 51.69840 -1.83362 2992 ft 212 kts 59°
2026-05-09 07:47 51.70599 -1.81332 2991 ft 211 kts 63°
2026-05-09 07:47 51.71136 -1.79201 2911 ft 201 kts 73°
2026-05-09 07:48 51.71535 -1.77046 2615 ft 201 kts 74°
2026-05-09 07:48 51.71937 -1.74896 2304 ft 199 kts 75°
2026-05-09 07:48 51.72330 -1.72775 2016 ft 196 kts 75°
2026-05-09 07:48 51.72717 -1.70678 1721 ft 193 kts 75°
2026-05-09 07:49 51.73096 -1.68618 1448 ft 189 kts 74°
2026-05-09 07:49 51.73465 -1.66614 1164 ft 187 kts 73°
2026-05-09 07:49 51.73832 -1.64634 866 ft 180 kts 73°
2026-05-09 07:49 51.74188 -1.62783 632 ft 167 kts 73°
2026-05-09 07:50 51.74495 -1.61068 394 ft 152 kts 73°
2026-05-09 07:50 51.74777 -1.59523 275 ft 132 kts 73°
2026-05-09 07:50 51.74970 -1.58446 268 ft 63 kts 73°
2026-05-09 07:50 51.75021 -1.58187 268 ft 3 kts 63°
2026-05-09 07:51 51.75055 -1.58133 268 ft 7 kts 29°
2026-05-09 07:51 51.75105 -1.58088 269 ft 9 kts 29°
2026-05-09 07:51 51.75168 -1.58033 268 ft 12 kts 28°
2026-05-09 07:51 51.75248 -1.57964 268 ft 15 kts 28°
2026-05-09 07:52 51.75344 -1.57880 268 ft 17 kts 28°
2026-05-09 07:52 51.75416 -1.57817 268 ft 18 kts 28°
2026-05-09 07:52 51.75480 -1.57809 268 ft 1 kts 306°
2026-05-09 07:52 51.75490 -1.57843 268 ft 5 kts 296°
2026-05-09 07:53 51.75510 -1.57905 268 ft 8 kts 298°
2026-05-09 07:53 51.75528 -1.57962 268 ft 8 kts 298°
2026-05-09 07:53 51.75530 -1.57968 268 ft 0 kts 298°